Weather History for Slidell, LA

Change the Weather History Date:

Saturday, May 25, 2013

  Actual Average (KNEW) Record (KNEW)
Temperature  
Mean Temperature 74 °F 79 °F  
Max Temperature 84 °F 87 °F 94 °F (1953)
Min Temperature 63 °F 70 °F 58 °F (1985)
Degree Days  
Heating Degree Days 0 0  
Month to date heating degree days 0  
Since 1 July heating degree days 1279  
Cooling Degree Days 8 14  
Month to date cooling degree days 275  
Year to date cooling degree days 532  
Growing Degree Days 24 (Base 50)    
Moisture  
Dew Point 60 °F    
Average Humidity 65    
Maximum Humidity 93    
Minimum Humidity 38    
Precipitation  
Precipitation 0.00 in 0.16 in 1.43 in (2002)
Month to date precipitation 3.55  
Year to date precipitation 23.16  
Snow  
Snow 0.00 in - - ()
Month to date snowfall  
Since 1 July snowfall  
Snow Depth -    
Sea Level Pressure  
Sea Level Pressure 30.18 in    
Wind  
Wind Speed 4 mph (ENE)    
Max Wind Speed 10 mph    
Max Gust Speed 17 mph    
Visibility 10 miles    
Events      
T = Trace of Precipitation, MM = Missing Value Source: NWS Daily Summary

Daily Weather History Graph

Daily Weather History Graph

Search for Another Location

Airport:

Trip Planner

Search our weather history database for the weather conditions in past years. The results will help you decide how hot, cold, wet, or windy it might be!

Date:

Astronomy

May. 25, 2013 Rise Set
Actual Time 5:59 AM CDT 7:52 PM CDT
Civil Twilight 5:33 AM CDT 8:19 PM CDT
Nautical Twilight 5:00 AM CDT 8:52 PM CDT
Astronomical Twilight 4:26 AM CDT 9:26 PM CDT
Moon 8:41 PM CDT (5/25) 6:25 AM CDT (5/25)
Length of Visible Light 14h 46m
Length of Day
13h 52m
Full, 100% of the Moon is Illuminated
May 25
Full
May 31
Last Quarter
Jun 8
New
Jun 16
First Quarter
Jun 23
Full

Hourly Weather History & Observations

Time (CDT) Temp. Heat Index Dew Point Humidity Pressure Visibility Wind Dir Wind Speed Gust Speed Precip Events Conditions
12:53 AM 72.0 °F - 63.0 °F 73% 30.15 in 10.0 mi NE 3.5 mph - N/A   Clear
1:53 AM 71.1 °F - 61.0 °F 70% 30.14 in 10.0 mi NE 4.6 mph - N/A   Clear
2:53 AM 69.1 °F - 59.0 °F 70% 30.14 in 10.0 mi Calm Calm - N/A   Clear
3:53 AM 66.0 °F - 59.0 °F 78% 30.15 in 10.0 mi NNE 4.6 mph - N/A   Clear
4:53 AM 64.0 °F - 59.0 °F 84% 30.17 in 10.0 mi NNE 3.5 mph - N/A   Clear
5:53 AM 63.0 °F - 57.0 °F 81% 30.18 in 10.0 mi NNE 3.5 mph - N/A   Clear
6:53 AM 64.9 °F - 55.0 °F 70% 30.20 in 10.0 mi NE 4.6 mph - N/A   Clear
7:53 AM 68.0 °F - 54.0 °F 61% 30.22 in 10.0 mi ENE 5.8 mph - N/A   Clear
8:53 AM 72.0 °F - 55.0 °F 55% 30.24 in 10.0 mi NE 6.9 mph - N/A   Scattered Clouds
9:53 AM 75.0 °F - 54.0 °F 48% 30.23 in 10.0 mi ENE 8.1 mph - N/A   Clear
10:53 AM 79.0 °F - 55.0 °F 44% 30.22 in 10.0 mi NNE 6.9 mph - N/A   Clear
11:53 AM 82.0 °F 81.6 °F 55.9 °F 41% 30.22 in 10.0 mi East 6.9 mph - N/A   Clear
12:53 PM 84.0 °F 83.0 °F 55.9 °F 38% 30.20 in 10.0 mi NE 4.6 mph - N/A   Clear
1:53 PM 84.0 °F 83.8 °F 59.0 °F 43% 30.19 in 10.0 mi South 10.4 mph - N/A   Clear
2:53 PM 84.0 °F 84.4 °F 61.0 °F 46% 30.17 in 10.0 mi South 4.6 mph 17.3 mph N/A   Clear
3:53 PM 82.9 °F 83.3 °F 61.0 °F 47% 30.17 in 10.0 mi South 10.4 mph - N/A   Clear
4:53 PM 84.0 °F 85.4 °F 64.0 °F 51% 30.16 in 10.0 mi SSE 8.1 mph - N/A   Clear
5:53 PM 82.0 °F 83.1 °F 63.0 °F 52% 30.15 in 10.0 mi South 8.1 mph - N/A   Clear
6:53 PM 80.1 °F 81.7 °F 64.0 °F 58% 30.14 in 10.0 mi SSE 4.6 mph - N/A   Clear
7:53 PM 73.9 °F - 68.0 °F 82% 30.14 in 10.0 mi Calm Calm - N/A   Clear
8:53 PM 71.1 °F - 66.9 °F 87% 30.15 in 10.0 mi Calm Calm - N/A   Clear
9:53 PM 69.1 °F - 66.0 °F 90% 30.17 in 10.0 mi Calm Calm - N/A   Clear
10:53 PM 68.0 °F - 66.0 °F 93% 30.17 in 10.0 mi Calm Calm - N/A   Clear
11:53 PM 66.0 °F - 64.0 °F 93% 30.16 in 10.0 mi Calm Calm - N/A   Clear